CZ-2C R/B, 43610

Orbit data source: Space-Track

CZ-2C R/B, 43610 is space debris in SSO originally from a launch on Fri, 07 Sep 2018 UTC launched from the Taiyaun Space Center, China (TSC). Debris objects in space refer to the collection of defunct objects orbiting the Earth. Examples of debris include non-operational satellites, rocket bodies, and fragments generated from explosions, collisions, or faulty payload assembly.

Loading next visibility...
Identifier
43610, 2018-068B
Orbit
SSO
Country
Flag of CNCN / PRC
Related business
Manufacturer
CALT
Mission
Spacecraft
Bus & Motor
CZ-2 STAGE 2, Unknown motor
Mass
~3,800 kg wet, ~3,800 kg dry
Launch date (UTC)
2018-09-07 (7 years ago)
Launch vehicle
Unknown
Launch site
Taiyaun Space Center, China (TSC)
Object type
Payload
Rocket body
Debris
Shape & HBR
Cyl, 3.7 m
Radar Cross Section
23.715 m², Large (>1 m²)

Expand to show TLE details & history
Last TLE update: 16 hours ago

TLE from 16 hours ago
0 CZ-2C R/B
1 43610U 18068B   25257.56089035  .00000306  00000-0  77226-4 0  9991
2 43610  98.7328  85.1100 0087967 111.6288 249.4307 14.56315114372778
Epoch: 2025-09-14T13:27Z
TLE epoch observation values (Epoch: 2025-09-14T13:27:40.926Z)
Latitude
-0.00003°
Longitude
-110.58866°
Altitude
730.436 km
Speed
7.478 km/s
True Right ascension
05h 40m 26s
True Declination
0° 00' 00"
Sunlit
Object was in daylight at epoch
Visualization orbit readout
Latitude
Unknown
Longitude
Unknown
Altitude
Unknown
Speed
Unknown
Apparent Right ascension
Unknown
Apparent Declination
Unknown
Sunlit
N/A
Visualization observer readout
Local Sidereal Time
22:33:06
Azimuth
Unknown
Elevation
Unknown
Doppler factor
Unknown
Orbital elements
Apogee altitude
764.492 km
Perigee altitude
639.925 km
Semi-major axis
7,080.345 km
Eccentricity
0.0088
Inclination
98.7328°
RAAN
85.11°
Arg. of periapsis
111.6288°
True anomaly
248.49061°
Mean anomaly
249.4307°
Eccentric anomaly
248.96029°
Mean motion
3.64302 °/min
Orbital period
98.82 mins
BSTAR
0.000077226
Loading maneuver chart data...
Computing Atmospheric mass density...
Loading historical data...
Loading historical data...
Loading historical data...
Loading historical data...
Loading historical data...
Loading historical data...
Loading historical data...
Other satellites on launch #68 in the year 2018 (2018-09-07 UTC)

Documentation

Showing up to 5 results
|